• In Schweiz
  • Länderverzeichnis
  • Für 7 Tage
  • Wassertemperatur
  • Satellitenkarten
  • Wetterkarte
  • Widgets
  • user-avatar
    Anmelden

    Stündliche Wetter Akranes

    Heute, 16 Oktober, Dienstag

    Zeit Temperatur Niederschläge Wind Luftdruck Luftfeuchtigkeit
    00:00 +3°C° 0.7 mm 6 m/S 735 mmHg 90%
    01:00 +3°C° 0.7 mm 6 m/S 734 mmHg 89%
    02:00 +3°C° 0.7 mm 7 m/S 732 mmHg 89%
    03:00 +4°C° 1.5 mm 7 m/S 731 mmHg 89%
    04:00 +4°C° 1.5 mm 8 m/S 730 mmHg 88%
    05:00 +3°C° 1.5 mm 9 m/S 728 mmHg 88%
    06:00 +4°C° 1.7 mm 8 m/S 728 mmHg 90%
    07:00 +4°C° 1.7 mm 7 m/S 727 mmHg 92%
    08:00 +5°C° 1.7 mm 6 m/S 727 mmHg 95%
    09:00 +6°C° 1.5 mm 5 m/S 727 mmHg 95%
    10:00 +6°C° 1.5 mm 5 m/S 727 mmHg 95%
    11:00 +6°C° 1.5 mm 4 m/S 727 mmHg 96%
    12:00 +6°C° 0.7 mm 4 m/S 727 mmHg 96%
    13:00 +6°C° 0.7 mm 4 m/S 727 mmHg 96%
    14:00 +6°C° 0.7 mm 4 m/S 727 mmHg 96%
    15:00 +5°C° 0.3 mm 5 m/S 728 mmHg 95%
    16:00 +4°C° 0.3 mm 6 m/S 728 mmHg 95%
    17:00 +4°C° 0.3 mm 8 m/S 729 mmHg 94%
    18:00 +2°C° 0.2 mm 9 m/S 730 mmHg 92%
    19:00 +2°C° 0.2 mm 11 m/S 731 mmHg 90%
    20:00 +2°C° 0.2 mm 12 m/S 731 mmHg 88%
    21:00 +1°C° 0.1 mm 13 m/S 732 mmHg 87%
    22:00 +1°C° 0.1 mm 13 m/S 733 mmHg 85%
    23:00 0°C° 0.1 mm 14 m/S 734 mmHg 84%

    Morgen, 17 Oktober, Mittwoch

    Zeit Temperatur Niederschläge Wind Luftdruck Luftfeuchtigkeit
    00:00 0°C° 0.2 mm 14 m/S 735 mmHg 83%
    01:00 0°C° 0.2 mm 14 m/S 736 mmHg 83%
    02:00 0°C° 0.2 mm 14 m/S 737 mmHg 82%
    03:00 0°C° 0.2 mm 13 m/S 738 mmHg 82%
    04:00 0°C° 0.2 mm 13 m/S 739 mmHg 82%
    05:00 0°C° 0.2 mm 12 m/S 741 mmHg 82%
    06:00 +1°C° 0.2 mm 11 m/S 742 mmHg 82%
    07:00 +1°C° 0.2 mm 11 m/S 743 mmHg 82%
    08:00 +1°C° 0.2 mm 10 m/S 745 mmHg 82%
    09:00 +1°C° 0.1 mm 10 m/S 746 mmHg 80%
    10:00 +1°C° 0.1 mm 10 m/S 747 mmHg 79%
    11:00 +1°C° 0.1 mm 10 m/S 748 mmHg 77%
    12:00 +1°C° 0 mm 9 m/S 749 mmHg 75%
    13:00 +1°C° 0 mm 9 m/S 749 mmHg 74%
    14:00 +1°C° 0 mm 8 m/S 750 mmHg 72%
    15:00 +2°C° 0 mm 7 m/S 751 mmHg 74%
    16:00 +1°C° 0 mm 6 m/S 751 mmHg 76%
    17:00 +1°C° 0 mm 5 m/S 752 mmHg 78%
    18:00 +1°C° 0 mm 5 m/S 752 mmHg 79%
    19:00 +1°C° 0 mm 5 m/S 752 mmHg 80%
    20:00 +1°C° 0 mm 5 m/S 752 mmHg 82%
    21:00 +1°C° 0.1 mm 6 m/S 752 mmHg 83%
    22:00 +2°C° 0.1 mm 6 m/S 752 mmHg 85%
    23:00 +2°C° 0.1 mm 7 m/S 751 mmHg 87%

    übermorgen, 18 Oktober, Donnerstag

    Zeit Temperatur Niederschläge Wind Luftdruck Luftfeuchtigkeit
    00:00 +1°C° 0.8 mm 8 m/S 751 mmHg 89%
    01:00 +2°C° 0.8 mm 9 m/S 750 mmHg 90%
    02:00 +2°C° 0.8 mm 10 m/S 749 mmHg 92%
    03:00 +2°C° 1.4 mm 11 m/S 748 mmHg 93%
    04:00 +3°C° 1.4 mm 11 m/S 747 mmHg 93%
    05:00 +3°C° 1.4 mm 11 m/S 746 mmHg 94%
    06:00 +4°C° 1.8 mm 11 m/S 745 mmHg 94%
    07:00 +5°C° 1.8 mm 10 m/S 744 mmHg 95%
    08:00 +5°C° 1.8 mm 9 m/S 744 mmHg 95%
    09:00 +5°C° 0.8 mm 9 m/S 743 mmHg 96%
    10:00 +6°C° 0.8 mm 8 m/S 743 mmHg 96%
    11:00 +6°C° 0.8 mm 7 m/S 743 mmHg 97%
    12:00 +6°C° 0.4 mm 7 m/S 742 mmHg 97%
    13:00 +5°C° 0.4 mm 6 m/S 741 mmHg 97%
    14:00 +5°C° 0.4 mm 6 m/S 741 mmHg 97%
    15:00 +5°C° 0.7 mm 6 m/S 740 mmHg 96%
    16:00 +5°C° 0.7 mm 6 m/S 740 mmHg 95%
    17:00 +4°C° 0.7 mm 6 m/S 739 mmHg 94%
    18:00 +4°C° 0.3 mm 6 m/S 739 mmHg 92%
    19:00 +4°C° 0.3 mm 7 m/S 739 mmHg 91%
    20:00 +4°C° 0.3 mm 7 m/S 739 mmHg 90%
    21:00 +4°C° 0.6 mm 8 m/S 739 mmHg 90%
    22:00 +4°C° 0.6 mm 8 m/S 738 mmHg 90%
    23:00 +4°C° 0.6 mm 8 m/S 738 mmHg 90%

    19 Oktober, Freitag

    Zeit Temperatur Niederschläge Wind Luftdruck Luftfeuchtigkeit
    00:00 +4°C° 0.9 mm 7 m/S 738 mmHg 90%
    01:00 +4°C° 0.9 mm 7 m/S 737 mmHg 90%
    02:00 +4°C° 0.9 mm 6 m/S 737 mmHg 90%
    03:00 +4°C° 0.3 mm 7 m/S 738 mmHg 91%
    04:00 +4°C° 0.3 mm 8 m/S 738 mmHg 91%
    05:00 +4°C° 0.3 mm 8 m/S 739 mmHg 92%
    06:00 +3°C° 0.3 mm 9 m/S 740 mmHg 92%
    07:00 +3°C° 0.3 mm 9 m/S 741 mmHg 91%
    08:00 +3°C° 0.3 mm 9 m/S 742 mmHg 91%
    09:00 +3°C° 0.2 mm 9 m/S 743 mmHg 90%
    10:00 +3°C° 0.2 mm 9 m/S 744 mmHg 89%
    11:00 +3°C° 0.2 mm 9 m/S 745 mmHg 87%
    12:00 +3°C° 0.2 mm 9 m/S 745 mmHg 85%
    13:00 +3°C° 0.2 mm 9 m/S 746 mmHg 83%
    14:00 +4°C° 0.2 mm 8 m/S 746 mmHg 82%
    15:00 +3°C° 0.1 mm 7 m/S 746 mmHg 82%
    16:00 +3°C° 0.1 mm 7 m/S 746 mmHg 82%
    17:00 +3°C° 0.1 mm 6 m/S 746 mmHg 83%
    18:00 +3°C° 0.6 mm 7 m/S 744 mmHg 85%
    19:00 +2°C° 0.6 mm 8 m/S 743 mmHg 87%
    20:00 +2°C° 0.6 mm 9 m/S 741 mmHg 90%
    21:00 +2°C° 1 mm 10 m/S 740 mmHg 89%
    22:00 +3°C° 1 mm 11 m/S 739 mmHg 89%
    23:00 +4°C° 1 mm 12 m/S 738 mmHg 89%

    20 Oktober, Samstag

    Zeit Temperatur Niederschläge Wind Luftdruck Luftfeuchtigkeit
    00:00 +3°C° 0.3 mm 12 m/S 737 mmHg 88%
    01:00 +3°C° 0.3 mm 13 m/S 737 mmHg 87%
    02:00 +3°C° 0.3 mm 13 m/S 736 mmHg 86%
    03:00 +3°C° 0.8 mm 14 m/S 735 mmHg 85%
    04:00 +3°C° 0.8 mm 14 m/S 734 mmHg 83%
    05:00 +2°C° 0.8 mm 15 m/S 733 mmHg 82%
    06:00 +2°C° 1 mm 15 m/S 733 mmHg 83%
    07:00 +2°C° 1 mm 15 m/S 733 mmHg 84%
    08:00 +2°C° 1 mm 15 m/S 734 mmHg 85%
    09:00 +2°C° 0.7 mm 15 m/S 735 mmHg 84%
    10:00 +2°C° 0.7 mm 15 m/S 736 mmHg 84%
    11:00 +1°C° 0.7 mm 14 m/S 738 mmHg 84%
    12:00 +1°C° 0.4 mm 14 m/S 739 mmHg 83%
    13:00 +1°C° 0.4 mm 13 m/S 740 mmHg 82%
    14:00 +1°C° 0.4 mm 13 m/S 741 mmHg 81%
    15:00 +1°C° 0.3 mm 13 m/S 741 mmHg 81%
    16:00 +2°C° 0.3 mm 12 m/S 742 mmHg 80%
    17:00 +2°C° 0.3 mm 12 m/S 743 mmHg 80%
    18:00 +2°C° 0.1 mm 11 m/S 744 mmHg 80%
    19:00 +1°C° 0.1 mm 10 m/S 744 mmHg 80%
    20:00 +1°C° 0.1 mm 9 m/S 745 mmHg 80%
    21:00 +1°C° 0.2 mm 9 m/S 745 mmHg 80%
    22:00 +1°C° 0.2 mm 9 m/S 745 mmHg 80%
    23:00 +1°C° 0.2 mm 9 m/S 745 mmHg 81%

    21 Oktober, Sonntag

    Zeit Temperatur Niederschläge Wind Luftdruck Luftfeuchtigkeit
    00:00 0°C° 0.2 mm 10 m/S 745 mmHg 78%
    01:00 0°C° 0.2 mm 10 m/S 744 mmHg 76%
    02:00 -2°C° 0.2 mm 10 m/S 744 mmHg 74%
    03:00 -2°C° 0.2 mm 10 m/S 744 mmHg 73%
    04:00 -2°C° 0.2 mm 10 m/S 743 mmHg 73%
    05:00 -2°C° 0.2 mm 10 m/S 743 mmHg 72%
    06:00 -2°C° 0.2 mm 10 m/S 743 mmHg 73%
    07:00 -1°C° 0.2 mm 9 m/S 744 mmHg 74%
    08:00 0°C° 0.2 mm 9 m/S 744 mmHg 75%
    09:00 0°C° 0.2 mm 10 m/S 745 mmHg 76%
    10:00 -1°C° 0.2 mm 11 m/S 746 mmHg 77%
    11:00 -1°C° 0.2 mm 13 m/S 747 mmHg 78%
    12:00 -1°C° 0.1 mm 12 m/S 748 mmHg 76%
    13:00 -2°C° 0.1 mm 12 m/S 748 mmHg 75%
    14:00 -2°C° 0.1 mm 12 m/S 749 mmHg 74%
    15:00 -2°C° 0.1 mm 12 m/S 750 mmHg 72%
    16:00 -2°C° 0.1 mm 12 m/S 751 mmHg 71%
    17:00 -1°C° 0.1 mm 11 m/S 752 mmHg 69%
    18:00 -1°C° 0 mm 11 m/S 753 mmHg 69%
    19:00 0°C° 0 mm 10 m/S 753 mmHg 69%
    20:00 0°C° 0 mm 10 m/S 754 mmHg 69%
    21:00 0°C° 0 mm 10 m/S 755 mmHg 73%
    22:00 +1°C° 0 mm 9 m/S 755 mmHg 76%
    23:00 +1°C° 0 mm 9 m/S 756 mmHg 80%
    Mehr zeigen